Location: Conjunto Santa Maria
(19.9513°S, 43.9599°W)
Time: 17:43:00
(UTC+00:00)

Cosmos-2242 - Pass Details

Date: 21 January 2021
Orbit: 591 x 616 km, 82.5° (Epoch: 01 March)

Event Time Altitude Azimuth Distance (km) Brightness Sun altitude
Exits shadow 22:24:37 - 33° (NNE) 2,001 5.2 -10.2°
Reaches altitude 10° 22:24:45 10° 34° (NE) 1,954 5.1 -10.3°
Maximum altitude 22:28:17 25° 89° (E) 1,253 4.1 -11.0°
Drops below altitude 10° 22:31:52 10° 144° (SE) 1,984 5.6 -11.8°
Sets 22:34:25 0° 157° (SSE) 2,899 6.6 -12.3°
